Hourly Data Report for July 14, 2004

SHERBROOKE A
QUEBEC

45°26'00.000" N
71°41'00.000" W
241.40 m
7028124
71610
YSC

Download Data

Hourly Data (July 2004)
Hourly Data Report for July 14, 2004
TIME
LST
Temp Definition
°C
Dew Point Definition
°C
Rel Hum Definition
%
Precip. Amount Definition
mm

Wind Dir Definition
10's deg

Wind Spd Definition
km/h
Visibility Definition
km
Stn Press Definition
kPa
Hmdx Definition


Wind Chill Definition


Weather Definition


00:00 16.7 13.1 79   13 7 15.0 98.20      
01:00 17.0 12.6 75   14 9 15.0 98.21      
02:00 16.0 13.0 82   14 7 15.0 98.15      
03:00 16.9 13.7 81   12 11 15.0 98.08      
04:00 16.9 13.8 82   12 11 15.0 98.05      
05:00 17.3 13.8 80   13 11 15.0 98.00      
06:00 17.6 14.8 84     0 15.0 97.99      
07:00 18.5 15.0 80   10 4 24.1 97.98     Mostly Cloudy
08:00 18.9 15.0 78   15 13 24.1 97.96     Mostly Cloudy
09:00 18.6 15.1 80   14 19 24.1 97.93     Cloudy
10:00 19.8 15.5 76   12 15 24.1 97.94     Cloudy
11:00 20.9 16.0 74   14 17 24.1 97.90 26   Mostly Cloudy
12:00 22.0 15.6 67   14 22 24.1 97.86 26   Mostly Cloudy
13:00 23.6 16.1 63   14 19 24.1 97.81 28   Mostly Cloudy
14:00 23.4 15.5 61   14 26 24.1 97.76 28   Mostly Cloudy
15:00 23.9 16.5 63   14 19 24.1 97.69 29   Mostly Cloudy
16:00 22.3 15.5 65   16 15 24.1 97.68 27   Mostly Cloudy
17:00 22.1 16.0 68   14 17 15.0 97.64 27    
18:00 21.2 15.4 69   16 13 15.0 97.66 25    
19:00 20.2 15.2 73   14 13 15.0 97.65      
20:00 19.1 15.3 79   11 7 15.0 97.61      
21:00 18.3 15.3 83   7 7 15.0 97.58      
22:00 17.7 15.1 85   4 6 15.0 97.54      
23:00 17.4 14.9 85   5 4 15.0 97.52      

Notes on Data Quality.

Legend

  • E = Estimated
  • M = Missing
  • NA = Not Available*
  • [empty] = Indicates an unobserved value
Date modified: